Location: Mentone
(34.5413°N, 85.5351°W)
Time: 22:20:04
(UTC-05:00)

AO-Echo - Pass Details

Date: 26 August 2017
Orbit: 694 x 810 km, 98.4° (Epoch: 17 June)

Event Time Altitude Azimuth Distance (km) Brightness Sun altitude
Rises 03:07:37 0° 353° (N) 3,120 ? -33.7°
Reaches altitude 10° 03:10:29 10° 335° (NNW) 2,213 ? -33.3°
Enters shadow 03:10:32 10° 335° (NNW) 2,200 ? -33.3°
